Terminal Aerodrome Forecast
Issued by NWS Tuscon, AZ

Home | Current Version | Previous Version | Text Only | Print | Product List | Glossary On
Versions: 1 2 3 4 5 6 7 8 9 10 11 12 13 14 15
000
FTUS45 KTWC 310520
TAFDUG
TAF
KDUG 310520Z 3106/0106 25008KT P6SM SKC
     FM310800 VRB05KT P6SM SKC
     FM311900 22012G20KT P6SM SCT110
     FM010300 28008KT P6SM SCT110=

USA.gov is the U.S. government's official web portal to all federal, state and local government web resources and services.